Location: La Pernelle
(49.6188°N, 1.2999°W)
Time: 14:12:58
(UTC+00:00)

Cosmos 1544 Rocket - Pass Details

Date: 12 June 2021
Orbit: 603 x 632 km, 82.5° (Epoch: 05 August)

Event Time Altitude Azimuth Distance (km) Brightness Sun altitude
Rises 22:28:21 0° 347° (NNW) 2,939 8.8 -14.1°
Reaches altitude 10° 22:30:36 10° 345° (NNW) 2,026 7.6 -14.2°
Maximum altitude 22:35:04 68° 263° (W) 685 3.8 -14.5°
Enters shadow 22:37:57 21° 185° (S) 1,407 4.9 -14.6°
